Regional Weather Roundup
Issued by NWS Wilmington, NC

Home | Current Version | Previous Version | Text Only | Print | Product List | Glossary On
Versions: 1 2 3 4 5 6 7 8 9 10 11 12 13 14 15 16 17 18 19 20 21 22 23 24 25 26 27 28 29 30 31 32 33 34 35 36 37 38 39 40 41 42 43 44 45 46 47 48 49 50
000
ASUS42 KILM 301210
RWRILM
RWRILM
REGIONAL HOURLY WEATHER ROUNDUP
NATIONAL WEATHER SERVICE WILMINGTON NC
800 AM EDT SAT AUG 30 2014

NOTE: "FAIR" INDICATES FEW OR NO CLOUDS BELOW 12,000 FEET WITH NO
SIGNIFICANT WEATHER AND/OR OBSTRUCTIONS TO VISIBILITY.

...............WFO WILMINGTON COUNTY WARNING AREA...............

......COASTAL NC AND SC COUNTIES......

CITY           SKY/WX    TMP DP  RH WIND       PRES   REMARKS
WILMINGTON     PTSUNNY   74  72  93 NE5       30.20R
SOUTHPORT      SUNNY     77  74  92 CALM      30.19R
N MYRTLE BEACH CLOUDY    76  73  91 N3        30.19R
MYRTLE BEACH   MOSUNNY   75  73  94 VRB6      30.19R

......INLAND NC AND SC COUNTIES.......

CITY           SKY/WX    TMP DP  RH WIND       PRES   REMARKS
LUMBERTON      CLOUDY    74  71  91 CALM      30.20R
ELIZABETHTOWN  CLOUDY    71  71 100 CALM      30.21R FOG
WHITEVILLE     CLOUDY    72  70  94 CALM      30.20R
FLORENCE       CLOUDY    75  72  90 NE3       30.19R HAZE
DARLINGTON     CLOUDY    73  70  88 NE5       30.21S

....................REST OF NORTH CAROLINA......................

.........EASTERN NC.........

CITY           SKY/WX    TMP DP  RH WIND       PRES   REMARKS
CAPE HATTERAS  PTSUNNY   77  77 100 CALM      30.21
JACKSONVILLE   CLOUDY    72  68  88 NE5       30.22R
MOREHEAD CITY  CLOUDY    77  74  90 NE5       30.20S
KENANSVILLE    CLOUDY    71  70  96 CALM      30.23R FOG
NEW BERN       CLOUDY    76  72  87 CALM      30.23R
ELIZABETH CITY PTSUNNY   75  69  81 E5        30.22S

.........CENTRAL NC.........

CITY           SKY/WX    TMP DP  RH WIND       PRES   REMARKS
RALEIGH DURHAM CLOUDY    73  67  81 SE3       30.23R
ROCKY MOUNT    PTSUNNY   71  68  90 CALM      30.23R
ROANOKE RAPIDS NOT AVBL
FAYETTEVILLE   CLOUDY    73  72  96 CALM      30.21R FOG
HOFFMAN        CLOUDY    73  71  95 E6        30.22S

.........WESTERN NC.........

CITY           SKY/WX    TMP DP  RH WIND       PRES   REMARKS
CHARLOTTE      MOSUNNY   74  69  85 E3        30.21R
GREENSBORO     PTSUNNY   73  72  94 SE3       30.22S FOG
HICKORY        NOT AVBL
BOONE          NOT AVBL
ASHEVILLE      NOT AVBL

.....................REST OF SOUTH CAROLINA.....................

.........EASTERN SC.........

CITY           SKY/WX    TMP DP  RH WIND       PRES   REMARKS
CHARLESTON     MOSUNNY   79  75  87 CALM      30.17R
BEAUFORT MCAS  SUNNY     79  75  87 CALM      30.16R
HILTON HEAD    NOT AVBL

.........CENTRAL SC.........

CITY           SKY/WX    TMP DP  RH WIND       PRES   REMARKS
COLUMBIA       MOSUNNY   74  71  91 CALM      30.18R FOG
ORANGEBURG     PTSUNNY   73  70  90 CALM      30.18R
SUMTER SHAW    FOG       73  73 100 NE5       30.18R VSB 1/4

.........WESTERN SC.........

CITY           SKY/WX    TMP DP  RH WIND       PRES   REMARKS
GREENVILLE     NOT AVBL
ROCK HILL      MOSUNNY   70  70 100 SE3       30.22R FOG
ANDERSON       SUNNY     72  67  84 E6        30.19R
CLEMSON        NOT AVBL
GREENWOOD      SUNNY     69  65  86 N3        30.21R


...................COASTAL AND OFFSHORE REPORTS..................

................LOCAL PIERS AND NC RESERVE................


STATION/POSITION TIME  SKY/WX   TEMP    WIND        PRES    VSBY
                                AIR SEA DIR/SP/G
                 (UTC)          (F)     (DEG/KT/KT) (MB)    (MI)
JOHNY MRCER PIER 1200            79 83   20/  8/  9 1022.0R
NC RESRV MASNBRO 1100            77        CALM     1021.0S
OCEAN CREST PIER 1200            79 83   10/  1/  2 1021.4R
SPRINGMAID  PIER 1200            77 82  320/  5/  7 1022.2R


................COASTAL AND OFFSHORE BUOYS................


STATION/POSITION TIME  SKY/WX   TEMP    WIND        PRES    VSBY
                                AIR SEA DIR/SP/G
                 (UTC)          (F)     (DEG/KT/KT) (MB)    (MI)
DIMNDSHOAL 41025 1200            80      40/  6/ 10 1022.9R
WVE H/P(F/S)=  4/ 7 WND WVE H/P(F/S)=  2/ 4 SWL H/P/D(F/S/D)=  3/120/ 7

CAPE LOOKOUT     1100            80      40/  6/  6 1022.6R
ONSLOW BAY 41036 1200            81 82   CALM  /  4 1023.1R
WVE H/P(F/S)=  3/ 7 WND WVE H/P(F/S)=  2/ 3 SWL H/P/D(F/S/D)=  3/140/ 7

5 WRITEBCH 41038 1200            79 81  130/  6/  8   N/A
MASONBORO  41110 1200               81                N/A
WVE H/P(F/S)=  2/ 7 WND WVE H/P(F/S)=  2/ 7

WILM HARBR 41108 1200               82                N/A
WVE H/P(F/S)=  2/ 8 WND WVE H/P(F/S)=  2/ 8

27WRITEBCH 41037 1100            78 81  170/  4/  4 1022.0R
FRYING PAN 41013 NOT AVBL
SUNST NRSH 41024 1100            80     360/  4/  6 1021.5R
CAPRS NRSH 41029 1100            81      80/  6/  6   N/A
EDISTO     41004 1200            82 83   50/  8/ 10 1020.9S
WVE H/P(F/S)=  3/ 8 SWL H/P/D(F/S/D)=  3/ 8



..........OFFSHORE BUOYS BEYOND 100 NM OFFSHORE...........
.....IN A TRIANGLE---HAT TO BERMUDA TO BAHAMAS TO HAT.....


STATION/POSITION TIME  SKY/WX   TEMP    WIND        PRES    VSBY
                                AIR SEA DIR/SP/G
                 (UTC)          (F)     (DEG/KT/KT) (MB)    (MI)
150E HAT   41001 NOT AVBL
W BERMUDA  41048 1106            79 79   40/  8/ 10 1022.5
WVE H/P(F/S)=  4/ 9 WND WVE H/P(F/S)=  2/ 4 SWL H/P/D(F/S/D)=  3/140/ 9

ATLANTIC S 41049 1148            84 85   80/  4/  6 1021.2R
WVE H/P(F/S)=  5/ 9 SWL H/P/D(F/S/D)=  5/ 70/ 9

E BAHAMAS  41046 1117            83 84   90/ 12/ 14 1019.4R
WVE H/P(F/S)=  4/ 8 WND WVE H/P(F/S)=  2/ 6 SWL H/P/D(F/S/D)=  3/110/ 8

NE BAHAMAS 41047 1114            82 84   90/  2/  4 1021.9R
WVE H/P(F/S)=  5/ 9 SWL H/P/D(F/S/D)=  5/130/ 9

120E CANVRL41010 1200            83 84  180/  8/ 10 1021.4R
WVE H/P(F/S)=  3/ 8 WND WVE H/P(F/S)=  2/ 4 SWL H/P/D(F/S/D)=  3/100/ 8


END


USA.gov is the U.S. government's official web portal to all federal, state and local government web resources and services.